LANDSAT 8

Last updated on Mon Sep 14 2026 00:02:44 GMT+0000 (Coordinated Universal Time)

1 39084U 13008A 26256.60888723 .00000220 00000+0 58995-4 0 9992 2 39084 98.2224 325.6576 0001323 95.0430 265.0919 14.57098944710772
UTC large
Height (km)
Speed (km/s)
/
Latitude / Longitude
Inclination (degrees)
Orbital Period (minutes)
Azimuth
Elevation
Range (km)
Doppler Factor

Next 0 passes for location: London (51.5072 / 0.1276)

No passes found over London.
LANDSAT 8